Regional Weather Roundup
Issued by NWS

Home | Current Version | Previous Version | Graphics & Text | Print | Product List | Glossary On
Versions: 1 2 3 4 5 6 7 8 9 10 11 12 13 14 15 16 17 18 19 20 21 22 23 24 25 26 27 28 29 30 31 32 33 34 35 36 37 38 39 40 41 42 43 44 45 46 47 48 49 50
000
ASUS45 KSLC 261110
RWRUT

UTAH REGIONAL WEATHER ROUNDUP
NATIONAL WEATHER SERVICE SALT LAKE CITY UT
500 AM MDT SUN APR 26 2015

UTZ001>011-023>025-261200-

NORTHERN UTAH

CITY           SKY/WX    TMP DP  RH WIND       PRES   REMARKS
BRIGHAM CITY   CLOUDY    41  36  81 N22G30    29.80S
HILL AFB       NOT AVBL
LOGAN          LGT RAIN  38  35  89 N15       29.80R WCI  29
OGDEN          LGT RAIN  39  36  89 NW16G28   29.79R WCI  30
PROVO AIRPORT  CLOUDY    39  36  87 N6        29.80R WCI  35
SALT LAKE CITY RAIN      39  36  89 N26G35    29.82R WCI  28
VERNAL         CLOUDY    43  39  86 CALM      29.72S
WENDOVER       PTCLDY    39  27  60 W17       29.86R WCI  30
HEBER CITY     MIX PCPN  36  34  93 CALM      29.76R
WEST JORDAN    CLOUDY    37  37 100 NW20G25   29.83R WCI  27

$$

UTZ012>022-026-027-261200-

SOUTHERN/CENTRAL UTAH

CITY           SKY/WX    TMP DP  RH WIND       PRES   REMARKS
BLANDING       CLOUDY    39  39  99 SW8       29.81F WCI  34
BRYCE CANYON   CLOUDY    32  30  92 NW13      29.78R WCI  22
CEDAR CITY     CLOUDY    38  36  92 CALM      29.80R
DELTA          CLOUDY    40  37  90 NW13      29.82R WCI  32
HANKSVILLE     CLOUDY    45  41  87 CALM      29.72S
MILFORD        LGT RAIN  38  31  76 N6        29.82R WCI  33
MOAB/CYNLANDS  PTCLDY    46  44  93 CALM      29.69S
PRICE          CLOUDY    41  37  86 E3        29.72S
ST GEORGE      PTSUNNY   46  39  76 S7        29.80S
KANAB          MOCLDY    37  37 100 N3        29.80S

$$

REGIONAL REPORTS     COLORADO/ARIZONA

CITY           SKY/WX    TMP DP  RH WIND       PRES   REMARKS
CRAIG, CO      CLOUDY    38  34  85 SE3       29.74S
GRAND JUNCTION CLOUDY    42  42 100 CALM      29.70F
RIFLE          PTCLDY    40  38  93 W3        29.72F
MONTROSE       CLOUDY    41  37  86 S5        29.72F
CORTEZ         LGT RAIN  38  37  97 E6        29.76F WCI  33
PAGE, AZ       PTCLDY    46  39  76 CALM      29.73R
GRAND CANYON   FOG       35  35 100 W3        29.78R VSB 1/4
KINGMAN        PTCLDY    39  36  89 CALM      29.81R
FLAGSTAFF      LGT SNOW  32  32 100 SW7       29.76S FOG     WCI  26

$$

REGIONAL REPORTS    NEVADA/IDAHO/WYOMING

CITY           SKY/WX    TMP DP  RH WIND       PRES   REMARKS
LAS VEGAS, NV  PTCLDY    58  30  34 W20       29.77R
ELY            MOCLDY    33  27  78 N7        29.91R WCI  27
ELKO           MOCLDY    36  25  64 W13       29.96R WCI  27
POCATELLO, ID  CLOUDY    37  32  82 SW23      29.85R WCI  26
BURLEY         MOCLDY    35  27  72 W20G28    29.87R WCI  24
EVANSTON, WY   SNOW      32  31  96 SW9       29.74R VSB 1/4 WCI  24
ROCK SPRINGS   CLOUDY    38  34  85 SE18      29.72S WCI  28
KEMMERER       LGT RAIN  36  34  93 N3        29.72S

$$



USA.gov is the U.S. government's official web portal to all federal, state and local government web resources and services.